STARLINK-35296, 65801

Orbit data source: Space-Track

STARLINK-35296, 65801 is a payload satellite owned by SpaceX/Seattle (US) in SSO that was launched on Fri, 26 Sep 2025 UTC via an FALCON 9 launch vehicle from the Air Force Western Test Range (AFWTR). Payload-class satellites include a variety of spacecraft equipped with specific instruments for various scientific and technological missions. These include communications satellites like Starlink; space stations such as the ISS; scientific satellites like the Hubble; Earth observation satellites from companies like Planet Labs, Umbra, and HawkEye 360; GPS; miniature CubeSats for education and research; and military/defense satellites.

Loading next visibility...
Identifier
65801, 2025-218L
Orbit
SSO
Country
Flag of USUS
Related business
Manufacturer
SpaceX/Seattle
Mission
Operational Commercial Communications
Bus & Motor
STARLINK V2MO, Unknown motor
Mass
575 kg wet, ~530 kg dry
Launch date (UTC)
2025-09-26 (1 month ago)
Launch vehicle
FALCON 9
Launch site
Air Force Western Test Range (AFWTR)
Object type
Payload
Rocket body
Debris
Shape & HBR
Box + 2 Pan, 17.7 m
Radar Cross Section
36.964 m²

Expand to show TLE details & history
Last TLE update: 2 days ago

TLE from 2 days ago
0 STARLINK-35296
1 65801U 25218L   25312.60819654  .00003740  00000-0  25761-3 0  9998
2 65801  97.6024 173.6509 0002435  89.8687 270.2820 15.06465252  6756
Epoch: 2025-11-08T14:35Z
TLE epoch observation values (Epoch: 2025-11-08T14:35:48.181Z)
Latitude
0.00008°
Longitude
-93.33523°
Altitude
550.07 km
Speed
7.587 km/s
True Right ascension
11h 34m 36s
True Declination
0° 00' 00"
Sunlit
Object was in daylight at epoch
Visualization orbit readout
Latitude
Unknown
Longitude
Unknown
Altitude
Unknown
Speed
Unknown
Apparent Right ascension
Unknown
Apparent Declination
Unknown
Sunlit
N/A
Visualization observer readout
Local Sidereal Time
03:34:29
Azimuth
Unknown
Elevation
Unknown
Doppler factor
Unknown
Orbital elements
Apogee altitude
545.689 km
Perigee altitude
542.318 km
Semi-major axis
6,922.141 km
Eccentricity
0.00024
Inclination
97.6024°
RAAN
173.6509°
Arg. of periapsis
89.8687°
True anomaly
270.2541°
Mean anomaly
270.282°
Eccentric anomaly
270.26805°
Mean motion
3.76862 °/min
Orbital period
95.53 mins
BSTAR
0.00025761
Loading maneuver chart data...
Computing Atmospheric mass density...
Loading historical data...
Loading historical data...
Loading historical data...
Loading historical data...
Loading historical data...
Loading historical data...
Loading historical data...

Documentation

Showing up to 5 results
|